Regional Weather Roundup
Issued by NWS

Home | Current Version | Previous Version | Graphics & Text | Print | Product List | Glossary Off
Versions: 1 2 3 4 5 6 7 8 9 10 11 12 13 14 15 16 17 18 19 20 21 22 23 24 25 26 27 28 29 30 31 32 33 34 35 36 37 38 39 40 41 42 43 44 45 46 47 48 49 50

000
ASUS43 KDMX 182307
RWRIA

WEATHER ROUNDUP FOR IOWA
NATIONAL WEATHER SERVICE DES MOINES IA
500 PM CST THU DEC 18 2014

NOTE: "FAIR" INDICATES FEW OR NO CLOUDS BELOW 12,000 FEET WITH NO
SIGNIFICANT WEATHER AND/OR OBSTRUCTIONS TO VISIBILITY.

* - THESE STATIONS ARE NOT NWS STATIONS...THUS NOT UNDER NWS
QUALITY CONTROL.  THEY ALSO DO NOT REPORT WEATHER SUCH
AS PRECIPITATION OR FOG.

IAZ001>003-012>014-020>022-031>034-043>046-190000-
   NORTHWEST IOWA

CITY           SKY/WX    TMP DP  RH WIND       PRES   REMARKS
CARROLL *      CLOUDY    28  25  86 SE3       30.22R
CHEROKEE *     CLOUDY    28  25  86 S3        30.21R
DENISON *      CLOUDY    30  27  86 CALM      30.20R
LE MARS *      CLOUDY    28  25  86 S6        30.21S WCI  22
ORANGE CITY *  CLOUDY    28  25  86 S6        30.19S WCI  22
SHELDON *      CLOUDY    27  25  93 S5        30.19R WCI  21
SIOUX CITY     CLOUDY    31  24  75 SE7       30.21R WCI  24
SPENCER        CLOUDY    27  20  75 S5        30.21R WCI  22
STORM LAKE *   CLOUDY    28  25  86 S5        30.21R WCI  23
$$

IAZ055>058-069>071-079>083-090>094-190000-
   SOUTHWEST IOWA

CITY           SKY/WX    TMP DP  RH WIND       PRES   REMARKS
ATLANTIC *     CLOUDY    30  27  86 CALM      30.22R
AUDUBON *      MOCLDY    30  21  69 CALM      30.22R
CLARINDA *     CLOUDY    30  27  86 CALM      30.24S
COUNCIL BLFS * CLOUDY    30  28  93 SE3       30.20R
CRESTON *      CLOUDY    30  27  86 CALM      30.22R
HARLAN  *      CLOUDY    30  28  93 CALM      30.25S
LAMONI         CLOUDY    30  25  81 CALM      30.22R
RED OAK *      CLOUDY    30  28  93 CALM      30.23R
SHENANDOAH *   CLOUDY    30  28  93 CALM      30.24R
$$

IAZ047>049-059>061-072>074-084-190000-
   CENTRAL IOWA

CITY           SKY/WX    TMP DP  RH WIND       PRES   REMARKS
AMES           CLOUDY    27  18  69 CALM      30.25R
ANKENY *       CLOUDY    28  21  74 E5        30.25R WCI  23
CHARITON *     CLOUDY    28  25  86 NE3       30.23S
DES MOINES     CLOUDY    30  21  69 E5        30.25R WCI  25
GRINNELL*      CLOUDY    27  21  80 NE5       30.25R WCI  21
KNOXVILLE *    CLOUDY    27  23  86 CALM      30.23S
MARSHALLTOWN   CLOUDY    24  18  77 NE3       30.24S
PELLA *        CLOUDY    27  23  86 CALM      30.26S
PERRY *        CLOUDY    30  25  80 CALM      30.23S
$$

IAZ004>006-015-016-023>025-035-036-190000-
   NORTH CENTRAL IOWA

CITY           SKY/WX    TMP DP  RH WIND       PRES   REMARKS
ALGONA *       CLOUDY    25  21  86 SE3       30.23S
CLARION *      CLOUDY    25  21  86 CALM      30.24R
ESTHERVILLE    CLOUDY    23  18  81 SE6       30.21S WCI  16
FORT DODGE *   CLOUDY    27  18  69 SE6       30.24R WCI  20
MASON CITY     CLOUDY    23  17  78 CALM      30.25R
FOREST CITY *  CLOUDY    25  18  74 CALM      30.23R
IOWA FALLS *   CLOUDY    25  19  80 CALM      30.25R
$$

IAZ007>011-017>019-026>030-037>042-050>054-066-190000-
   NORTHEAST IOWA

CITY           SKY/WX    TMP DP  RH WIND       PRES   REMARKS
CEDAR RAPIDS   CLOUDY    24  18  77 NW5       30.25R WCI  18
CHARLES CITY * CLOUDY    23  18  80 N5        30.25R WCI  17
CLINTON *      CLOUDY    21  18  86 CALM      30.29S
DECORAH *      CLOUDY    23  18  80 CALM      30.23S
DUBUQUE        CLEAR     22  16  78 CALM      30.24R
MONTICELLO *   MOCLDY    23  19  86 W5        30.26R WCI  17
OELWEIN *      CLOUDY    23  18  80 CALM      30.25R
WATERLOO       CLOUDY    24  18  77 NW3       30.26R
$$

IAZ064-065-067-068-078-190000-
   EAST CENTRAL IOWA

CITY           SKY/WX    TMP DP  RH WIND       PRES   REMARKS
DAVENPORT      MOCLDY    24  17  74 NW5       30.27R WCI  18
IOWA CITY      CLOUDY    26  18  71 NW3       30.28S
MT. PLEASANT * CLOUDY    27  21  80 CALM      30.27R
MUSCATINE *    CLOUDY    28  19  69 N6        30.29R WCI  22
QUAD CITIES    CLOUDY    27  17  66 N6        30.26R WCI  20
$$

IAZ062-063-075>077-085>089-095>099-190000-
   SOUTHEAST IOWA

CITY           SKY/WX    TMP DP  RH WIND       PRES   REMARKS
BURLINGTON     CLOUDY    28  21  75 NW3       30.26R
FAIRFIELD *    CLOUDY    27  21  80 CALM      30.26S
FORT MADISON * CLOUDY    28  25  86 CALM      30.27R
KEOKUK *       CLOUDY    28  25  86 CALM      30.26R
OSKALOOSA *    CLOUDY    27  23  86 E3        30.25S
CENTERVILLE *  MOCLDY    28  25  86 NE6       30.24S WCI  22
OTTUMWA        CLOUDY    26  22  84 CALM      30.25R
WASHINGTON *   CLOUDY    28  23  80 N5        30.26R WCI  23
$$

ABBREVIATIONS USED IN REMARKS
   TC - TEMPERATURES IN CELSIUS
  WCI - WIND CHILL INDEX
   HX - HEAT INDEX
  VSB - VISIBILITY
$$




USA.gov is the U.S. government's official web portal to all federal, state and local government web resources and services.